Back to catalog

MOLNIYA 1-40

AliveCommunicationsHEO
NORAD 10925·PAYLOAD·🇷🇺 Russia

Launched Jun 2, 1978 from Plesetsk Cosmodrome

Loading…

Next Passes (next 24 hours)

TLE

FreshSource: Space-Track

Epoch: Sep 13, 2026, 21:47 UTC

1 10925U 78055A   26256.90774062 -.00000214  00000-0  00000-0 0  9996
2 10925  64.0176 213.0340 6710576 273.6495  17.8984  2.00690678353763

Track MOLNIYA 1-40 in real time with AllMySat

Download on the App Store